Location: Landeleau
(48.2273°N, 3.7285°W)
Time: 16:48:40
(UTC+00:00)

Aureole 2 Rocket - Pass Details

Date: 30 March 2020
Orbit: 307 x 440 km, 73.9° (Epoch: 23 May)

Event Time Altitude Azimuth Distance (km) Brightness Sun altitude
Rises 21:13:09 0° 328° (NNW) 2,467 7.3 -23.7°
Reaches altitude 10° 21:15:25 10° 317° (NW) 1,592 6.2 -24.0°
Maximum altitude 21:18:30 29° 256° (WSW) 864 4.1 -24.4°
Enters shadow 21:18:33 29° 254° (WSW) 864 4.1 -24.4°
